This is the latest recevied weather packets stored in our database for station/object DN9EM-2. If no packets are shown the sender has not sent any weather packets the latest 10 day(s).
| Time | Temp. | Humidity | Pressure | Rain* | Wind** | Luminosity | Snow |
|---|---|---|---|---|---|---|---|
| 1777548058 | 17.78° C | 39% | 1033.8 hPa | 0 mm | - | - | - |
| 1777547455 | 17.78° C | 40% | 1034 hPa | 0 mm | - | - | - |
| 1777546852 | 16.67° C | 40% | 1034 hPa | 0 mm | - | - | - |
| 1777546250 | 16.67° C | 41% | 1034.2 hPa | 0 mm | - | - | - |
| 1777545647 | 16.11° C | 41% | 1034.2 hPa | 0 mm | - | - | - |
| 1777545044 | 16.11° C | 40% | 1034.3 hPa | 0 mm | - | - | - |
| 1777544442 | 16.11° C | 40% | 1034.4 hPa | 0 mm | - | - | - |
| 1777543839 | 15.56° C | 41% | 1034.4 hPa | 0 mm | - | - | - |
| 1777543236 | 16.11° C | 40% | 1034.4 hPa | 0 mm | - | - | - |
| 1777542634 | 16.11° C | 40% | 1034.5 hPa | 0 mm | - | - | - |
| 1777542031 | 16.11° C | 39% | 1034.8 hPa | 0 mm | - | - | - |
| 1777541428 | 16.11° C | 40% | 1034.7 hPa | 0 mm | - | - | - |
| 1777540826 | 15.56° C | 41% | 1034.7 hPa | 0 mm | - | - | - |
| 1777540223 | 15.56° C | 41% | 1034.8 hPa | 0 mm | - | - | - |
| 1777539620 | 15.56° C | 42% | 1034.9 hPa | 0 mm | - | - | - |
| 1777539018 | 15° C | 42% | 1035 hPa | 0 mm | - | - | - |
| 1777538415 | 15° C | 44% | 1035 hPa | 0 mm | - | - | - |
| 1777537872 | 15° C | 44% | 1035 hPa | 0 mm | - | - | - |
| 1777537270 | 14.44° C | 45% | 1035 hPa | 0 mm | - | - | - |
| 1777536667 | 14.44° C | 44% | 1035 hPa | 0 mm | - | - | - |
| 1777536064 | 14.44° C | 48% | 1035 hPa | 0 mm | - | - | - |
| 1777535462 | 14.44° C | 48% | 1035 hPa | 0 mm | - | - | - |
| 1777534859 | 13.89° C | 52% | 1035 hPa | 0 mm | - | - | - |
| 1777534256 | 13.33° C | 53% | 1035 hPa | 0 mm | - | - | - |
| 1777533653 | 13.33° C | 54% | 1034.9 hPa | 0 mm | - | - | - |
* Rain latest hour (hover to see other rain measurements)
** Current wind speed in m/s (hover to see current wind gust speed)